Regional Weather Roundup
Issued by NWS

Home | Current Version | Previous Version | Text Only | Print | Product List | Glossary On
Versions: 1 2 3 4 5 6 7 8 9 10 11 12 13 14 15 16 17 18 19 20 21 22 23 24 25 26 27 28 29 30 31 32 33 34 35 36 37 38 39 40 41 42 43 44 45 46 47 48 49 50
000
ASUS44 KJAN 020910
RWRMS

MISSISSIPPI HOURLY WEATHER ROUNDUP
NATIONAL WEATHER SERVICE JACKSON MS
400 AM CDT TUE JUN 02 2015

NOTE: "FAIR: INDICATES FEW OR NO CLOUDS BELOW 12,000 FEET WITH NO
SIGNIFICANT WEATHER AND/OR OBSTRUCTIONS TO VISIBILITY.

MSZ001>002-007>008-010>013-018>021-025>028-034>036-021000-
NORTHWEST MISSISSIPPI

CITY           SKY/WX    TMP DP  RH WIND       PRES   REMARKS
CLARKSDALE       N/A     61  61 100 CALM      30.08S
CLEVELAND      FAIR      61  61 100 CALM      30.06S
GREENWOOD      CLEAR     62  59  90 CALM      30.05F
GREENVILLE     CLEAR     62  61  96 NE5       30.05F
OLIVE BRANCH   CLEAR     57 N/A N/A CALM      30.07F
OXFORD         FAIR      57  55  94 CALM      30.08S
TUNICA           N/A     61  59  94 N3        30.08S FOG
$$

MSZ003>006-009-014>017-022>024-029>033-037>039-021000-
NORTHEAST MISSISSIPPI

CITY           SKY/WX    TMP DP  RH WIND       PRES   REMARKS
COLUMBUS AFB   CLEAR     61  60  97 NW5       30.03S
CORINTH        FAIR      63  61  94 W3        30.05R FOG
GOLDN TRIANGLE CLEAR     63  59  88 NW3       30.03S
STARKVILLE     FAIR      61  59  94 CALM      30.04S FOG
TUPELO         CLEAR     62  60  93 CALM      30.04F
$$

MSZ040-058-021000-
CENTRAL MISSISSIPPI

CITY           SKY/WX    TMP DP  RH WIND       PRES   REMARKS
JACKSON INTL   CLEAR     66  64  93 CALM      30.03S
JACKSON HAWKNS CLEAR     65  64  97 CALM      30.04R
MERIDIAN KEY   CLEAR     65  64  97 N5        30.02S
MERIDIAN NAS   CLEAR     65  63  93 CALM      30.02F
RAYMOND        FAIR      64  59  82 CALM      30.03S HAZE
VICKSBURG      CLEAR     67  64  90 NE8       30.03F
$$

MSZ059>079-021000-
SOUTH MISSISSIPPI

CITY           SKY/WX    TMP DP  RH WIND       PRES   REMARKS
BROOKHAVEN     FAIR      64  64 100 CALM      30.04S FOG
HATTIESBURG    PTCLDY    70  69  97 NW5       30.00S
MCCOMB         CLEAR     68  67  96 N6        30.01S
NATCHEZ        CLEAR     66  63  88 NE3       30.02S
PINE BELT      CLEAR     66  64  94 N6        30.01S
$$

MSZ080>082-021000-
COASTAL MISSISSIPPI

CITY           SKY/WX    TMP DP  RH WIND       PRES   REMARKS
BILOXI         MOCLDY    73  71  93 CALM      29.98S
PASCAGOULA     CLOUDY    71  70  96 CALM      29.99R
GULFPORT       CLOUDY    72  69  90 CALM      29.98S
$$


USA.gov is the U.S. government's official web portal to all federal, state and local government web resources and services.